sat.trackr.live / text

‹ back to catalog

STARLINK-34642

NORAD 64910 · 2025-157G

PAYLOAD ACTIVE UNKNOWN

§ Identity

Operator
Country
US
Launch date
2025-07-26
Launch site
AFETR
Launch vehicle
Mass (kg)
RCS (m²)

Purposes: comms

External: N2YO · Heavens-Above · Gunter

§ Orbital elements

Epoch: 2026-09-20T05:23:15.653472Z

Period
94.01 min
Inclination
53.1578°
Eccentricity
0.0001357
Mean motion
15.31722546 rev/d
Perigee alt
469.7 km
Apogee alt
471.6 km
Semi-major
6,848.8 km
B*
4.2071e-4
RAAN
160.2537°
Arg perigee
90.7444°
Mean anomaly
269.3713°
Rev number
6,593

§ Raw data

STARLINK-346421 64910U 25157G   26263.22448673  .00012722  00000+0  42071-3 0  99952 64910  53.1578 160.2537 0001357  90.7444 269.3713 15.31722546 65939

JSON: /api/v1/satellites/64910 · /tle

For live sub-satellite position, see the globe view (requires WebGL).

§ Visibility from observer

Set your observer location to see the next 7 days of passes ≥ 10°. The values pass through the URL so the page stays shareable.

No JS? Fill the form by hand. The geolocation button needs JavaScript.